{"data":{"norad_id":65427,"epoch":"2026-05-24T22:53:52.660608Z","epoch_age_seconds":72293,"freshness":"FRESH","line1":"1 65427U 25192Z   26144.95408172  .00018450  00000+0  63343-3 0  9995","line2":"2 65427  53.1555 237.8939 0001060  79.8043 280.3078 15.30203341 41060","mean_motion":15.30203341,"eccentricity":0.000106,"inclination_deg":53.1555,"raan_deg":237.8939,"arg_perigee_deg":79.8043,"mean_anomaly_deg":280.3078,"bstar":0.00063343,"rev_number":4106,"period_min":94.105140239659,"perigee_km":474.47863955175,"apogee_km":475.93154807564,"semimajor_km":6853.3420938137,"source":"CELESTRAK","updated_at":"2026-05-25T13:38:20.804250Z"}}